RPA5709 KLGA-KDCA

Flight info

Callsign RPA5709
Flight time 0h 47m
Altitude 32000
Route BIGGY Q75 MXE CLIPR3
Aircraft E170/M-SDE3GILORVW/S

Departure

Time 2026-05-03 23:41
Airport LaGuardia Airport (KLGA)

Arrival

Time 2026-05-04 00:28
Airport Ronald Reagan Washington National Airport (KDCA)
Time Latitude Longitude Altitude Speed Heading
2026-05-03 23:21 40.76778 -73.85999 17 ft 0 kts 132°
2026-05-03 23:29 40.76784 -73.86007 17 ft 3 kts 132°
2026-05-03 23:29 40.76797 -73.86027 17 ft 3 kts 127°
2026-05-03 23:29 40.76805 -73.86050 20 ft 3 kts 92°
2026-05-03 23:30 40.76803 -73.86062 18 ft 0 kts 72°
2026-05-03 23:30 40.76810 -73.86044 19 ft 3 kts 57°
2026-05-03 23:30 40.76823 -73.86025 17 ft 3 kts 43°
2026-05-03 23:30 40.76838 -73.86007 18 ft 3 kts 42°
2026-05-03 23:31 40.76853 -73.85989 17 ft 3 kts 42°
2026-05-03 23:31 40.76868 -73.85971 17 ft 3 kts 42°
2026-05-03 23:31 40.76883 -73.85953 18 ft 3 kts 42°
2026-05-03 23:31 40.76889 -73.85946 17 ft 0 kts 42°
2026-05-03 23:37 40.76897 -73.85936 18 ft 5 kts 43°
2026-05-03 23:38 40.76944 -73.85890 17 ft 12 kts 23°
2026-05-03 23:38 40.77027 -73.85890 16 ft 11 kts 346°
2026-05-03 23:38 40.77113 -73.85859 9 ft 11 kts 49°
2026-05-03 23:38 40.77151 -73.85801 11 ft 5 kts 47°
2026-05-03 23:39 40.77179 -73.85766 13 ft 6 kts 36°
2026-05-03 23:39 40.77217 -73.85754 13 ft 8 kts 342°
2026-05-03 23:39 40.77245 -73.85785 14 ft 0 kts 301°
2026-05-03 23:40 40.77268 -73.85834 13 ft 33 kts 302°
2026-05-03 23:40 40.77549 -73.86427 11 ft 117 kts 302°
2026-05-03 23:40 40.78081 -73.87523 497 ft 151 kts 302°
2026-05-03 23:41 40.78690 -73.88672 1401 ft 153 kts 315°
2026-05-03 23:41 40.79593 -73.89379 2281 ft 148 kts 339°
2026-05-03 23:41 40.80557 -73.89714 2954 ft 145 kts 340°
2026-05-03 23:41 40.81562 -73.90074 3148 ft 154 kts 339°
2026-05-03 23:42 40.82623 -73.90474 3346 ft 162 kts 340°
2026-05-03 23:42 40.83713 -73.90899 3658 ft 164 kts 338°
2026-05-03 23:42 40.84814 -73.91391 3987 ft 176 kts 336°
2026-05-03 23:42 40.86000 -73.91978 4465 ft 182 kts 335°
2026-05-03 23:43 40.87164 -73.92697 5142 ft 186 kts 326°
2026-05-03 23:43 40.88146 -73.93862 5693 ft 200 kts 304°
2026-05-03 23:43 40.88584 -73.95673 6200 ft 215 kts 273°
2026-05-03 23:43 40.88272 -73.97606 6815 ft 227 kts 251°
2026-05-03 23:44 40.87400 -73.99514 6946 ft 255 kts 241°
2026-05-03 23:44 40.86410 -74.01536 7212 ft 268 kts 242°
2026-05-03 23:44 40.85399 -74.03630 7809 ft 269 kts 243°
2026-05-03 23:44 40.84440 -74.05720 8396 ft 270 kts 245°
2026-05-03 23:45 40.83475 -74.07893 9012 ft 273 kts 245°
2026-05-03 23:45 40.82505 -74.10068 9578 ft 277 kts 245°
2026-05-03 23:45 40.81506 -74.12260 10136 ft 279 kts 245°
2026-05-03 23:45 40.80475 -74.14506 10294 ft 296 kts 244°
2026-05-03 23:46 40.79380 -74.16889 10585 ft 305 kts 244°
2026-05-03 23:46 40.78288 -74.19246 11107 ft 306 kts 244°
2026-05-03 23:46 40.77180 -74.21637 11651 ft 307 kts 244°
2026-05-03 23:46 40.76059 -74.24068 12183 ft 310 kts 244°
2026-05-03 23:47 40.74939 -74.26498 12803 ft 312 kts 244°
2026-05-03 23:47 40.73806 -74.28960 13363 ft 315 kts 244°
2026-05-03 23:47 40.72658 -74.31443 14001 ft 317 kts 244°
2026-05-03 23:47 40.71522 -74.33905 14507 ft 321 kts 244°
2026-05-03 23:48 40.70359 -74.36431 15029 ft 324 kts 245°
2026-05-03 23:48 40.69180 -74.38976 15608 ft 327 kts 245°
2026-05-03 23:48 40.67985 -74.41543 16239 ft 329 kts 245°
2026-05-03 23:48 40.66786 -74.44118 16831 ft 332 kts 245°
2026-05-03 23:49 40.65577 -74.46724 17436 ft 335 kts 245°
2026-05-03 23:49 40.64363 -74.49349 18060 ft 338 kts 245°
2026-05-03 23:49 40.63135 -74.51994 18638 ft 340 kts 244°
2026-05-03 23:49 40.61891 -74.54660 19236 ft 341 kts 244°
2026-05-03 23:50 40.60712 -74.57185 19775 ft 343 kts 244°
2026-05-03 23:50 40.59843 -74.59049 20193 ft 345 kts 244°
2026-05-03 23:50 40.58165 -74.62666 20986 ft 347 kts 244°
2026-05-03 23:50 40.56906 -74.65387 21562 ft 350 kts 244°
2026-05-03 23:51 40.55632 -74.68122 22168 ft 352 kts 243°
2026-05-03 23:51 40.54338 -74.70873 22777 ft 355 kts 243°
2026-05-03 23:51 40.53053 -74.73604 23416 ft 356 kts 243°
2026-05-03 23:51 40.51756 -74.76393 23978 ft 358 kts 243°
2026-05-03 23:52 40.50455 -74.79195 24509 ft 361 kts 243°
2026-05-03 23:52 40.49139 -74.82009 25034 ft 363 kts 243°
2026-05-03 23:52 40.47811 -74.84844 25550 ft 365 kts 243°
2026-05-03 23:52 40.46468 -74.87692 26055 ft 367 kts 243°
2026-05-03 23:53 40.45109 -74.90566 26525 ft 370 kts 242°
2026-05-03 23:53 40.43751 -74.93431 26978 ft 372 kts 242°
2026-05-03 23:53 40.42371 -74.96324 27442 ft 375 kts 240°
2026-05-03 23:53 40.40700 -74.99003 27862 ft 382 kts 232°
2026-05-03 23:54 40.38902 -75.01583 28317 ft 384 kts 232°
2026-05-03 23:54 40.37107 -75.04134 28770 ft 386 kts 232°
2026-05-03 23:54 40.35275 -75.06713 29269 ft 387 kts 232°
2026-05-03 23:54 40.33433 -75.09312 29590 ft 392 kts 232°
2026-05-03 23:55 40.31575 -75.11929 30006 ft 393 kts 232°
2026-05-03 23:55 40.29708 -75.14553 30379 ft 394 kts 232°
2026-05-03 23:55 40.27828 -75.17189 30684 ft 397 kts 232°
2026-05-03 23:55 40.25935 -75.19837 30987 ft 398 kts 231°
2026-05-03 23:56 40.24038 -75.22485 31300 ft 400 kts 231°
2026-05-03 23:56 40.22778 -75.24246 31463 ft 401 kts 231°
2026-05-03 23:56 40.20872 -75.26913 31724 ft 402 kts 231°
2026-05-03 23:56 40.18965 -75.29588 32040 ft 402 kts 231°
2026-05-03 23:57 40.15154 -75.34920 31756 ft 388 kts 231°
2026-05-03 23:57 40.13369 -75.37374 31863 ft 365 kts 231°
2026-05-03 23:57 40.11637 -75.39762 31914 ft 366 kts 232°
2026-05-03 23:58 40.09867 -75.42227 31562 ft 375 kts 232°
2026-05-03 23:58 40.08060 -75.44735 31035 ft 383 kts 232°
2026-05-03 23:58 40.06230 -75.47269 30508 ft 384 kts 232°
2026-05-03 23:58 40.04395 -75.49799 29993 ft 384 kts 232°
2026-05-03 23:59 40.02560 -75.52313 29531 ft 384 kts 232°
2026-05-03 23:59 40.00696 -75.54869 28962 ft 388 kts 232°
2026-05-03 23:59 39.98841 -75.57418 28488 ft 386 kts 232°
2026-05-03 23:59 39.96995 -75.59957 27948 ft 387 kts 232°
2026-05-04 00:00 39.95137 -75.62506 27409 ft 388 kts 232°
2026-05-04 00:00 39.93281 -75.65049 26945 ft 384 kts 232°
2026-05-04 00:00 39.91579 -75.67678 26424 ft 375 kts 242°
2026-05-04 00:00 39.90129 -75.70480 25906 ft 374 kts 241°
2026-05-04 00:01 39.88641 -75.73261 25425 ft 372 kts 241°
2026-05-04 00:01 39.87155 -75.76020 24904 ft 370 kts 241°
2026-05-04 00:01 39.85703 -75.78762 24423 ft 368 kts 243°
2026-05-04 00:01 39.84273 -75.81511 23970 ft 366 kts 243°
2026-05-04 00:02 39.82848 -75.84264 23416 ft 365 kts 243°
2026-05-04 00:02 39.81433 -75.86983 22993 ft 361 kts 243°
2026-05-04 00:02 39.80027 -75.89677 22500 ft 360 kts 243°
2026-05-04 00:02 39.78641 -75.92327 22030 ft 358 kts 243°
2026-05-04 00:03 39.77223 -75.95032 21567 ft 356 kts 243°
2026-05-04 00:03 39.75844 -75.97656 21091 ft 354 kts 243°
2026-05-04 00:03 39.74462 -76.00286 20631 ft 352 kts 243°
2026-05-04 00:03 39.73082 -76.02913 20167 ft 350 kts 243°
2026-05-04 00:04 39.71712 -76.05521 19698 ft 348 kts 243°
2026-05-04 00:04 39.70355 -76.08103 19256 ft 346 kts 243°
2026-05-04 00:04 39.69007 -76.10663 18794 ft 344 kts 243°
2026-05-04 00:04 39.67651 -76.13235 18332 ft 342 kts 243°
2026-05-04 00:05 39.66309 -76.15776 17880 ft 338 kts 243°
2026-05-04 00:05 39.64979 -76.18292 17427 ft 338 kts 242°
2026-05-04 00:05 39.63656 -76.20800 16997 ft 335 kts 242°
2026-05-04 00:05 39.62340 -76.23284 16522 ft 334 kts 242°
2026-05-04 00:06 39.61046 -76.25723 16123 ft 330 kts 242°
2026-05-04 00:06 39.59746 -76.28178 15651 ft 329 kts 242°
2026-05-04 00:06 39.58212 -76.30407 15249 ft 338 kts 225°
2026-05-04 00:06 39.56317 -76.32213 14769 ft 337 kts 221°
2026-05-04 00:07 39.54387 -76.33895 14335 ft 329 kts 219°
2026-05-04 00:07 39.52491 -76.35508 13901 ft 322 kts 219°
2026-05-04 00:07 39.50642 -76.37106 13466 ft 315 kts 220°
2026-05-04 00:07 39.48850 -76.38675 13070 ft 307 kts 220°
2026-05-04 00:08 39.47094 -76.40208 12664 ft 301 kts 220°
2026-05-04 00:08 39.45375 -76.41706 12330 ft 293 kts 220°
2026-05-04 00:08 39.43698 -76.43166 12151 ft 290 kts 220°
2026-05-04 00:08 39.42028 -76.44628 11899 ft 296 kts 220°
2026-05-04 00:09 39.40323 -76.46108 11811 ft 295 kts 220°
2026-05-04 00:09 39.38617 -76.47584 11702 ft 297 kts 220°
2026-05-04 00:09 39.36895 -76.49073 11592 ft 296 kts 220°
2026-05-04 00:09 39.35202 -76.50532 11452 ft 296 kts 219°
2026-05-04 00:10 39.33484 -76.52010 11365 ft 293 kts 220°
2026-05-04 00:10 39.31788 -76.53475 11211 ft 294 kts 220°
2026-05-04 00:10 39.30094 -76.54944 11094 ft 293 kts 220°
2026-05-04 00:10 39.28405 -76.56405 10974 ft 292 kts 220°
2026-05-04 00:11 39.26720 -76.57863 10833 ft 292 kts 220°
2026-05-04 00:11 39.25031 -76.59325 10697 ft 291 kts 220°
2026-05-04 00:11 39.23350 -76.60774 10608 ft 291 kts 219°
2026-05-04 00:11 39.21660 -76.62217 10457 ft 291 kts 219°
2026-05-04 00:12 39.19973 -76.63653 10339 ft 290 kts 219°
2026-05-04 00:12 39.18292 -76.65095 10245 ft 289 kts 219°
2026-05-04 00:12 39.16625 -76.66545 10222 ft 289 kts 221°
2026-05-04 00:12 39.15090 -76.68186 10146 ft 285 kts 229°
2026-05-04 00:13 39.13689 -76.69975 10162 ft 282 kts 231°
2026-05-04 00:13 39.12300 -76.71768 10203 ft 284 kts 230°
2026-05-04 00:13 39.10875 -76.73531 10204 ft 285 kts 229°
2026-05-04 00:13 39.09422 -76.75278 10190 ft 285 kts 229°
2026-05-04 00:14 39.07960 -76.77011 10186 ft 285 kts 228°
2026-05-04 00:14 39.06519 -76.78719 10185 ft 285 kts 228°
2026-05-04 00:14 39.05061 -76.80447 10187 ft 285 kts 229°
2026-05-04 00:14 39.03604 -76.82167 10197 ft 285 kts 228°
2026-05-04 00:15 39.02147 -76.83890 10199 ft 285 kts 229°
2026-05-04 00:15 39.00681 -76.85621 10199 ft 286 kts 228°
2026-05-04 00:15 38.99217 -76.87343 10196 ft 284 kts 228°
2026-05-04 00:15 38.97764 -76.89047 10178 ft 282 kts 228°
2026-05-04 00:16 38.96309 -76.90737 10196 ft 284 kts 226°
2026-05-04 00:16 38.94785 -76.92356 10189 ft 285 kts 224°
2026-05-04 00:16 38.93093 -76.93722 10202 ft 294 kts 206°
2026-05-04 00:16 38.91073 -76.94206 10217 ft 302 kts 189°
2026-05-04 00:17 38.88954 -76.94309 10160 ft 304 kts 185°
2026-05-04 00:17 38.86842 -76.94282 10184 ft 304 kts 184°
2026-05-04 00:17 38.84728 -76.94263 10058 ft 305 kts 184°
2026-05-04 00:17 38.82602 -76.94294 9798 ft 303 kts 186°
2026-05-04 00:18 38.80504 -76.94365 9557 ft 300 kts 186°
2026-05-04 00:18 38.78425 -76.94449 9301 ft 299 kts 186°
2026-05-04 00:18 38.76353 -76.94487 9044 ft 299 kts 182°
2026-05-04 00:18 38.74259 -76.94304 8633 ft 302 kts 178°
2026-05-04 00:19 38.72188 -76.94007 8217 ft 299 kts 177°
2026-05-04 00:19 38.70127 -76.93718 7684 ft 295 kts 178°
2026-05-04 00:19 38.68168 -76.93503 7160 ft 274 kts 179°
2026-05-04 00:19 38.66340 -76.93358 6636 ft 254 kts 180°
2026-05-04 00:20 38.64628 -76.93230 6086 ft 240 kts 180°
2026-05-04 00:20 38.63003 -76.93098 5512 ft 230 kts 180°
2026-05-04 00:20 38.61440 -76.93015 4999 ft 217 kts 188°
2026-05-04 00:20 38.60067 -76.93502 4626 ft 196 kts 217°
2026-05-04 00:21 38.59110 -76.94655 4429 ft 189 kts 242°
2026-05-04 00:21 38.58562 -76.96150 4150 ft 182 kts 258°
2026-05-04 00:21 38.58672 -76.97677 3857 ft 171 kts 301°
2026-05-04 00:21 38.59569 -76.98611 3663 ft 169 kts 333°
2026-05-04 00:22 38.60609 -76.99194 3874 ft 158 kts 333°
2026-05-04 00:22 38.61661 -76.99810 4136 ft 168 kts 332°
2026-05-04 00:22 38.62786 -77.00429 4137 ft 184 kts 336°
2026-05-04 00:22 38.63997 -77.00917 3903 ft 179 kts 343°
2026-05-04 00:23 38.65196 -77.01090 3808 ft 173 kts 357°
2026-05-04 00:23 38.66414 -77.00841 3610 ft 182 kts 12°
2026-05-04 00:23 38.67622 -77.00677 3219 ft 178 kts 339°
2026-05-04 00:23 38.68592 -77.01601 2905 ft 167 kts 314°
2026-05-04 00:24 38.69584 -77.02228 2657 ft 168 kts 349°
2026-05-04 00:24 38.70738 -77.02271 2578 ft 164 kts 352°
2026-05-04 00:24 38.71875 -77.02420 2432 ft 166 kts 349°
2026-05-04 00:24 38.73007 -77.02557 2258 ft 158 kts 351°
2026-05-04 00:25 38.74117 -77.02651 2046 ft 159 kts 351°
2026-05-04 00:25 38.75211 -77.02767 1831 ft 156 kts 351°
2026-05-04 00:25 38.76244 -77.02870 1605 ft 140 kts 348°
2026-05-04 00:25 38.77173 -77.02963 1435 ft 137 kts 351°
2026-05-04 00:26 38.78118 -77.03064 1243 ft 135 kts 347°
2026-05-04 00:26 38.79065 -77.03164 1063 ft 139 kts 351°
2026-05-04 00:26 38.80104 -77.03266 908 ft 158 kts 351°
2026-05-04 00:26 38.81186 -77.03377 645 ft 151 kts 351°
2026-05-04 00:27 38.82182 -77.03473 423 ft 140 kts 353°
2026-05-04 00:27 38.83108 -77.03564 257 ft 127 kts 349°
2026-05-04 00:27 38.83997 -77.03659 90 ft 127 kts 353°
2026-05-04 00:27 38.84855 -77.03747 22 ft 107 kts 356°
2026-05-04 00:28 38.85370 -77.03802 23 ft 46 kts 356°
2026-05-04 00:28 38.85533 -77.03895 23 ft 16 kts 309°
2026-05-04 00:28 38.85541 -77.04028 22 ft 14 kts 213°
2026-05-04 00:28 38.85447 -77.04009 22 ft 16 kts 168°
2026-05-04 00:29 38.85342 -77.04009 22 ft 7 kts 219°
2026-05-04 00:29 38.85322 -77.04081 24 ft 11 kts 252°
2026-05-04 00:29 38.85302 -77.04163 22 ft 7 kts 252°
2026-05-04 00:29 38.85286 -77.04213 22 ft 4 kts 225°
2026-05-04 00:30 38.85266 -77.04216 24 ft 4 kts 167°
2026-05-04 00:30 38.85244 -77.04208 22 ft 1 kts 162°
2026-05-04 00:30 38.85234 -77.04204 22 ft 0 kts 162°